[[{"header":{"parameterUnit":"m.s-1","parameterCategory":1,"la1":30.2991,"la2":30.254,"lo1":-89.0895,"lo2":-89.0444,"dy":0.0017,"dx":0.0017,"nx":28,"ny":28,"refTime":"2023-03-16T21:00:00:Z","depth":0,"parameterNumber":2,"parameterNumberName":"U-component_of_WINDS"},"data":[0,0,0,0,0,0,0,0,0,0,0,0,0,0,0,0,0,0,0,0,0,0,0,0,0,0,0,0,0,0,0,0,0,0,0,0,0,0,0,0,0,0,0,0,0,0,0,0,0,0,0,0,0,0,0,0,0,0,-1.4697,-1.4697,0,-1.4729,-1.4729,-1.473,-1.4743,-1.4743,-1.4743,-1.4743,-1.4777,-1.4778,-1.4779,0,0,0,0,0,0,0,0,0,0,0,0,0,-1.465,-1.465,-1.4697,-1.4697,-1.4697,-1.4729,-1.4729,-1.473,-1.4743,-1.4743,-1.4743,-1.4743,-1.4777,-1.4778,-1.4779,0,0,0,0,0,0,0,0,0,0,0,0,0,-1.4675,-1.4651,-1.4697,-1.4708,-1.4709,-1.4729,-1.4729,-1.473,-1.4743,-1.4743,-1.4743,-1.4743,-1.4777,-1.4778,-1.478,-1.4791,0,0,-1.4784,-1.4785,0,0,0,0,0,0,0,0,-1.4673,-1.4676,-1.4706,-1.4707,-1.4709,-1.4732,-1.4725,-1.475,-1.4743,-1.473,-1.4743,-1.4743,-1.4762,-1.4765,-1.4771,-1.4792,-1.4794,-1.4784,-1.4785,-1.4786,-1.4786,0,0,0,0,0,0,0,-1.4672,-1.4675,-1.4709,-1.4706,-1.4708,-1.4712,-1.4716,-1.473,-1.4747,-1.4731,-1.4732,-1.4736,-1.4763,-1.477,-1.4772,-1.4794,-1.4784,-1.4785,-1.4786,-1.4787,-1.4828,-1.4828,0,0,0,0,0,0,-1.4668,-1.4674,-1.4708,-1.471,-1.469,-1.4713,-1.4717,-1.4724,-1.4746,-1.475,-1.4736,-1.4736,-1.4767,-1.4771,-1.4774,-1.4789,-1.4786,-1.4787,-1.4788,-1.4827,-1.4828,-1.4828,0,0,0,0,0,0,-1.4667,-1.4671,-1.4707,-1.4692,-1.4697,-1.4714,-1.4722,-1.4725,-1.4732,-1.475,-1.4753,-1.474,-1.4767,-1.4771,-1.4787,-1.479,-1.4788,-1.4789,-1.4827,-1.4827,-1.4828,-1.4818,0,0,0,0,0,0,-1.4665,-1.467,-1.4674,-1.4692,-1.4698,-1.4719,-1.4723,-1.4726,-1.4734,-1.4735,-1.4754,-1.4757,-1.4768,-1.4784,-1.4788,-1.4792,-1.479,-1.4827,-1.4827,-1.4828,-1.4818,-1.4818,-1.4818,0,0,0,0,0,-1.4663,-1.467,-1.4674,-1.4678,-1.4703,-1.4719,-1.4722,-1.4733,-1.4734,-1.4739,-1.4751,-1.4757,-1.4789,-1.4786,-1.479,-1.4794,-1.4827,-1.4827,-1.4828,-1.4818,-1.4818,-1.4818,0,0,0,0,0,0,-1.4651,-1.4672,-1.4677,-1.4689,-1.4702,-1.4721,-1.4727,-1.4733,-1.4746,-1.4746,-1.4761,-1.4765,-1.4779,-1.4788,-1.4784,-1.4807,-1.4809,-1.481,-1.48,-1.48,-1.48,-1.4797,-1.4791,0,0,0,0,0,-1.465,-1.4661,-1.4679,-1.4688,-1.4694,-1.4709,-1.4717,-1.4725,-1.4739,-1.4744,-1.4757,-1.4771,-1.4785,-1.4793,-1.4806,-1.482,-1.4825,-1.4826,-1.4826,-1.4825,-1.4826,-1.4835,-1.4836,-1.4829,-1.4829,-1.4829,0,0,-1.4648,-1.4661,-1.4666,-1.4686,-1.4697,-1.4708,-1.4714,-1.4725,-1.4734,-1.4746,-1.4761,-1.4771,-1.4788,-1.4803,-1.481,-1.4811,-1.4829,-1.4826,-1.4826,-1.4827,-1.4836,-1.4837,-1.4837,-1.483,-1.483,-1.483,0,0,-1.4649,-1.466,-1.4669,-1.468,-1.4696,-1.4706,-1.4709,-1.4727,-1.4734,-1.4749,-1.4759,-1.477,-1.4793,-1.4804,-1.4813,-1.4821,-1.4828,-1.4825,-1.4824,-1.4833,-1.4834,-1.4834,-1.4838,-1.4839,-1.4826,-1.4826,-1.4826,0,-1.4644,-1.4661,-1.4673,-1.4684,-1.4693,-1.4705,-1.4715,-1.4725,-1.4745,-1.4751,-1.4753,-1.4782,-1.4794,-1.4812,-1.4814,-1.4821,-1.4825,-1.4823,-1.4833,-1.4833,-1.4834,-1.4837,-1.4838,-1.4826,-1.4826,-1.4826,-1.4826,0,-1.4655,-1.4666,-1.4672,-1.4691,-1.4701,-1.4711,-1.4726,-1.4735,-1.4742,-1.4753,-1.4769,-1.4784,-1.4801,-1.4806,-1.4813,-1.4826,-1.4826,-1.483,-1.4831,-1.4834,-1.4837,-1.4839,-1.4825,-1.4825,-1.4826,-1.4826,0,0,-1.4648,-1.4674,-1.4676,-1.4685,-1.4705,-1.4715,-1.4727,-1.4743,-1.475,-1.4764,-1.4775,-1.4795,-1.4799,-1.4809,-1.4818,-1.4826,-1.4832,-1.4829,-1.483,-1.4829,-1.4848,-1.4844,-1.4846,-1.4837,-1.4837,-1.4838,-1.4846,0,-1.4652,-1.4673,-1.4685,-1.4701,-1.4713,-1.4725,-1.4735,-1.4749,-1.476,-1.4772,-1.4784,-1.4798,-1.4802,-1.4808,-1.4817,-1.483,-1.4836,-1.4829,-1.4848,-1.4849,-1.4843,-1.4847,-1.4844,-1.4851,-1.4848,-1.4848,-1.4848,0,-1.4659,-1.4673,-1.469,-1.4709,-1.4715,-1.4724,-1.4741,-1.4752,-1.4768,-1.4776,-1.4788,-1.4797,-1.4812,-1.4813,-1.4833,-1.4828,-1.4837,-1.4845,-1.4846,-1.4847,-1.4848,-1.4849,-1.4854,-1.4855,-1.485,-1.485,-1.485,0,-1.4653,-1.4676,-1.4689,-1.4697,-1.472,-1.4726,-1.4736,-1.4752,-1.4762,-1.4777,-1.4783,-1.48,-1.4809,-1.4823,-1.4837,-1.4836,-1.4856,-1.4858,-1.4863,-1.4863,-1.4866,-1.4866,-1.4872,-1.4872,-1.4872,-1.4872,-1.4872,0,-1.4656,-1.4666,-1.4687,-1.4695,-1.4708,-1.4722,-1.4734,-1.4745,-1.476,-1.4772,-1.4783,-1.4794,-1.4812,-1.4826,-1.4837,-1.4853,-1.4857,-1.4864,-1.4867,-1.4863,-1.4862,-1.4868,-1.4868,-1.4873,-1.4873,-1.4873,-1.4872,0,-1.4651,-1.4665,-1.4681,-1.4701,-1.4707,-1.4715,-1.4733,-1.4742,-1.4754,-1.4768,-1.4773,-1.4791,-1.4808,-1.4824,-1.4846,-1.4854,-1.487,-1.4873,-1.4864,-1.4865,-1.4869,-1.4869,-1.488,-1.4882,-1.4881,-1.4881,-1.4881,0,-1.4652,-1.466,-1.4681,-1.469,-1.4699,-1.4712,-1.4722,-1.4738,-1.4748,-1.4768,-1.4775,-1.4792,-1.4807,-1.4833,-1.4849,-1.4867,-1.4871,-1.4874,-1.4874,-1.487,-1.4871,-1.487,-1.4872,-1.4873,-1.4873,-1.4873,-1.4873,0,-1.4652,-1.4659,-1.4672,-1.4688,-1.47,-1.4713,-1.4727,-1.4734,-1.4752,-1.4763,-1.478,-1.4791,-1.4814,-1.4831,-1.4851,-1.4862,-1.4871,-1.4873,-1.4875,-1.4871,-1.4865,-1.4868,-1.4863,-1.4872,-1.4873,-1.4873,-1.4873,-1.4873,-1.465,-1.4658,-1.4675,-1.4689,-1.4702,-1.4715,-1.4725,-1.4738,-1.4752,-1.4771,-1.478,-1.4797,-1.4815,-1.4842,-1.4854,-1.4868,-1.487,-1.4873,-1.4874,-1.4874,-1.4874,-1.4863,-1.4872,-1.4872,-1.4872,-1.4872,-1.4872,0,-1.4651,-1.4662,-1.4676,-1.4695,-1.4707,-1.4714,-1.473,-1.474,-1.4755,-1.4771,-1.4785,-1.4805,-1.4822,-1.484,-1.4859,-1.4867,-1.4872,-1.4872,-1.4871,-1.4874,-1.4871,-1.4867,-1.4868,-1.4868,-1.4868,-1.4868,-1.4868,-1.4868,-1.4653,-1.4667,-1.4676,-1.4697,-1.4709,-1.4725,-1.4734,-1.4747,-1.476,-1.4781,-1.4795,-1.4807,-1.4824,-1.4844,-1.4861,-1.4866,-1.4872,-1.4871,-1.4877,-1.4874,-1.4874,-1.4874,-1.4871,-1.4872,-1.4872,-1.4879,-1.4879,-1.4879]},{"header":{"parameterUnit":"m.s-1","parameterCategory":1,"la1":30.2991,"la2":30.254,"lo1":-89.0895,"lo2":-89.0444,"dy":0.0017,"dx":0.0017,"nx":28,"ny":28,"refTime":"2023-03-16T21:00:00:Z","depth":0,"parameterNumber":3,"parameterNumberName":"V-component_of_WINDS"},"data":[0,0,0,0,0,0,0,0,0,0,0,0,0,0,0,0,0,0,0,0,0,0,0,0,0,0,0,0,0,0,0,0,0,0,0,0,0,0,0,0,0,0,0,0,0,0,0,0,0,0,0,0,0,0,0,0,0,0,6.6218,6.6218,0,6.6246,6.6246,6.6247,6.6174,6.6172,6.6169,6.6167,6.6192,6.6195,6.6198,0,0,0,0,0,0,0,0,0,0,0,0,0,6.6097,6.6099,6.6218,6.6218,6.6218,6.6246,6.6246,6.6247,6.6174,6.6172,6.6169,6.6166,6.6191,6.6195,6.6198,0,0,0,0,0,0,0,0,0,0,0,0,0,6.614,6.61,6.6218,6.6186,6.6183,6.6246,6.6246,6.6247,6.6175,6.6172,6.6168,6.6165,6.619,6.6194,6.6198,6.6292,0,0,6.6211,6.6213,0,0,0,0,0,0,0,0,6.6137,6.6144,6.619,6.6188,6.6185,6.6203,6.6213,6.6262,6.6176,6.6178,6.6167,6.6163,6.6198,6.6202,6.6214,6.6293,6.6294,6.6211,6.6214,6.6216,6.6217,0,0,0,0,0,0,0,6.6134,6.6142,6.6229,6.6191,6.6188,6.6169,6.6171,6.6222,6.6207,6.6177,6.6172,6.6177,6.6196,6.621,6.6214,6.6295,6.6211,6.6215,6.6218,6.6219,6.6452,6.6456,0,0,0,0,0,0,6.6136,6.614,6.6228,6.623,6.6153,6.6174,6.6176,6.6201,6.6206,6.6204,6.618,6.6173,6.6205,6.621,6.6215,6.6325,6.6216,6.622,6.6222,6.6449,6.6453,6.6457,0,0,0,0,0,0,6.6134,6.6145,6.6227,6.6184,6.6193,6.6179,6.6207,6.6203,6.6217,6.6208,6.6204,6.6197,6.6202,6.6209,6.6274,6.6325,6.6222,6.6225,6.6444,6.645,6.6455,6.6546,0,0,0,0,0,0,6.6131,6.6144,6.618,6.6185,6.6195,6.6286,6.6211,6.6206,6.6225,6.6217,6.6223,6.6221,6.62,6.6268,6.6278,6.6328,6.6229,6.644,6.6447,6.6454,6.6538,6.6554,6.6567,0,0,0,0,0,6.6127,6.6204,6.6183,6.6193,6.6241,6.6289,6.6295,6.6271,6.6229,6.6265,6.6259,6.6221,6.6318,6.6275,6.6286,6.6338,6.6436,6.6445,6.6453,6.6532,6.6551,6.6567,0,0,0,0,0,0,6.6203,6.6204,6.618,6.6261,6.6276,6.6277,6.6321,6.6292,6.6317,6.6309,6.6276,6.6279,6.6349,6.635,6.6303,6.643,6.637,6.6381,6.6426,6.6444,6.6458,6.6456,6.6232,0,0,0,0,0,6.623,6.6271,6.6269,6.634,6.6349,6.6335,6.6355,6.6335,6.6349,6.6354,6.6353,6.6366,6.6399,6.6422,6.6452,6.6539,6.6538,6.658,6.6595,6.6606,6.6616,6.6661,6.6679,6.6485,6.6485,6.6484,0,0,6.6284,6.629,6.6317,6.6356,6.6365,6.6407,6.634,6.6387,6.6418,6.636,6.6422,6.6422,6.6435,6.6511,6.6544,6.6514,6.667,6.6617,6.6627,6.6629,6.6672,6.669,6.6706,6.649,6.6489,6.6488,0,0,6.6405,6.6414,6.6475,6.6487,6.6502,6.6492,6.6507,6.6513,6.6511,6.6573,6.6531,6.6567,6.6625,6.6636,6.6649,6.6777,6.6742,6.6788,6.6862,6.6907,6.6922,6.6936,6.698,6.6997,6.6797,6.6797,6.6798,0,6.6471,6.6534,6.651,6.6561,6.6578,6.6531,6.6592,6.6604,6.6628,6.6641,6.6607,6.668,6.6685,6.6763,6.6795,6.6807,6.6822,6.6786,6.6922,6.6936,6.6948,6.699,6.7007,6.6803,6.6802,6.6802,6.6801,0,6.6613,6.6658,6.6705,6.6732,6.6755,6.6811,6.6794,6.682,6.68,6.6793,6.6856,6.6861,6.6892,6.6909,6.6889,6.6985,6.6965,6.6928,6.6867,6.6972,6.7011,6.7027,6.681,6.6809,6.6807,6.6806,0,0,6.6781,6.6795,6.6813,6.6825,6.6839,6.6873,6.6926,6.6958,6.6981,6.7,6.7043,6.7095,6.706,6.7076,6.7056,6.7096,6.7196,6.7053,6.7053,6.7078,6.7301,6.7328,6.7347,6.7174,6.7177,6.7179,6.73,0,6.69,6.6993,6.6974,6.7064,6.7105,6.7062,6.7108,6.7122,6.7118,6.715,6.7145,6.7182,6.7134,6.7143,6.7181,6.7176,6.724,6.7167,6.7212,6.7214,6.7209,6.7368,6.7397,6.751,6.7315,6.7317,6.7319,0,6.705,6.7077,6.7173,6.7182,6.7198,6.724,6.7268,6.7301,6.7315,6.7309,6.7328,6.7301,6.7353,6.7293,6.7364,6.7315,6.7332,6.7333,6.7337,6.7338,6.7272,6.7373,6.7545,6.7562,6.7343,6.7341,6.734,0,6.7162,6.7222,6.7287,6.7298,6.7311,6.7341,6.7348,6.7359,6.738,6.7404,6.7417,6.7447,6.7463,6.7486,6.7467,6.7426,6.7541,6.748,6.7536,6.7537,6.756,6.7559,6.7737,6.7575,6.7575,6.7574,6.7574,0,6.7295,6.7355,6.7337,6.7377,6.7443,6.742,6.7485,6.7486,6.7497,6.7536,6.75,6.7537,6.7511,6.7545,6.7531,6.7591,6.7599,6.7595,6.759,6.7597,6.7598,6.7607,6.7598,6.7579,6.7578,6.7577,6.7576,0,6.743,6.7421,6.7488,6.7496,6.7499,6.7547,6.7553,6.7589,6.7584,6.7633,6.7643,6.7633,6.7672,6.7656,6.7697,6.7687,6.7764,6.775,6.776,6.7755,6.7812,6.7807,6.8001,6.8025,6.7849,6.7851,6.7852,0,6.7515,6.7561,6.7574,6.7598,6.7608,6.7647,6.7669,6.7648,6.7672,6.7693,6.7727,6.7763,6.779,6.7854,6.7849,6.788,6.7865,6.7931,6.7869,6.7875,6.7865,6.7862,6.7866,6.7943,6.7945,6.7947,6.7948,0,6.7667,6.7661,6.7694,6.7727,6.7754,6.7778,6.7799,6.782,6.7801,6.7829,6.7869,6.7891,6.7934,6.7969,6.7997,6.8002,6.7972,6.7968,6.7983,6.7989,6.7993,6.7991,6.7792,6.7963,6.7962,6.7961,6.796,6.7959,6.7779,6.7818,6.7833,6.7872,6.7886,6.7907,6.7942,6.7941,6.7975,6.8009,6.7995,6.8041,6.8054,6.8089,6.8098,6.8133,6.8107,6.8128,6.8133,6.8139,6.8146,6.7989,6.8138,6.8138,6.8138,6.8137,6.8137,0,6.7928,6.7937,6.7973,6.8004,6.8035,6.8006,6.8028,6.8055,6.8096,6.8113,6.8141,6.8187,6.8222,6.8222,6.8254,6.8282,6.8269,6.8291,6.8288,6.8289,6.8168,6.8151,6.8301,6.8301,6.8301,6.8301,6.8301,6.8301,6.8009,6.8073,6.8069,6.8139,6.8147,6.8193,6.8208,6.8226,6.8239,6.8293,6.8323,6.8323,6.8332,6.8365,6.8396,6.8394,6.8407,6.8434,6.8428,6.8314,6.8298,6.8282,6.8267,6.8438,6.8438,6.8546,6.8547,6.8548]}]]